This demonstration page uses our WeatherBlox Daily Observations layout. Learn more.

Left ArrowRight Arrow

Hourly Observations for July 13, 2020

Temp ( °F °C ) Dew Point ( °F °C ) Humidity (%) Winds ( mph kmh ) Pressure ( in mb ) Visibility ( mi km ) Precip ( " mm )
12:53 am 00:53 Clear 69 20.6 62 16.7 78 78 SE 12 19 29.88 1012 10 16 0.00 0.00
1:53 am 01:53 Clear 68 20 62 16.7 81 81 SSE 8 13 29.88 1012 10 16 0.00 0.00
2:53 am 02:53 Clear 68 20 61 16.1 78 78 SSE 8 13 29.87 1012 10 16 0.00 0.00
3:53 am 03:53 Clear 67 19.4 61 16.1 81 81 SSE 9 15 29.85 1011 10 16 0.00 0.00
4:53 am 04:53 Clear 66 18.9 61 16.1 84 84 SSE 6 9 29.85 1011 10 16 0.00 0.00
5:53 am 05:53 Clear 65 18.3 61 16.1 87 87 S 6 9 29.85 1011 10 16 0.00 0.00
6:53 am 06:53 Sunny 66 18.9 61 16.1 84 84 SSE 8 13 29.83 1010 10 16 0.00 0.00
7:53 am 07:53 Sunny 68 20 62 16.7 81 81 S 7 11 29.83 1010 10 16 0.00 0.00
8:53 am 08:53 Sunny 75 23.9 63 17.2 66 66 S 9 15 29.83 1010 10 16 0.00 0.00
9:53 am 09:53 Sunny 79 26.1 64 17.8 60 60 S 12 19 29.83 1010 10 16 0.00 0.00
10:53 am 10:53 Sunny 83 28.3 66 18.9 57 57 S 12 19 29.82 1010 10 16 0.00 0.00
11:53 am 11:53 Sunny 85 29.4 65 18.3 51 51 SSW 10 17 29.81 1010 10 16 0.00 0.00
12:53 pm 12:53 Sunny 87 30.6 67 19.4 51 51 SW 10 17 29.81 1010 10 16 0.00 0.00
1:53 pm 13:53 Sunny 88 31.1 66 18.9 48 48 SSW 14 22 29.78 1009 10 16 0.00 0.00
2:53 pm 14:53 Sunny 91 32.8 65 18.3 42 42 SSW 14 22 29.78 1009 10 16 0.00 0.00
3:53 pm 15:53 Sunny 93 33.9 66 18.9 41 41 SSW 13 20 29.77 1008 10 16 0.00 0.00
4:53 pm 16:53 Sunny 93 33.9 67 19.4 42 42 SSE 14 22 29.75 1008 10 16 0.00 0.00
5:53 pm 17:53 Sunny 92 33.3 69 20.6 47 47 S 13 20 29.74 1007 10 16 0.00 0.00
6:53 pm 18:53 Sunny 90 32.2 69 20.6 50 50 SSE 14 22 29.73 1007 10 16 0.00 0.00
7:53 pm 19:53 Sunny 87 30.6 68 20 53 53 S 13 20 29.72 1006 10 16 0.00 0.00
8:53 pm 20:53 Sunny 84 28.9 67 19.4 57 57 SSE 12 19 29.75 1007 10 16 0.00 0.00
9:53 pm 21:53 Clear 82 27.8 67 19.4 60 60 S 9 15 29.76 1008 10 16 0.00 0.00
10:53 pm 22:53 Clear 80 26.7 67 19.4 64 64 SSE 6 9 29.78 1008 10 16 0.00 0.00
11:53 pm 23:53 Partly Cloudy 78 25.6 67 19.4 69 69 WNW 13 20 29.84 1010 10 16 0.00 0.00

Powered by AerisWeather